Location: Goll?ig?dem
(16.6773°N, 80.7332°E)
Time: 05:37:35
(UTC+00:00)

Palapa 6 Rocket - Pass Details

Date: 19 May 2025
Orbit: 481 x 1165 km, 22.7° (Epoch: 18 June)

Event Time Altitude Azimuth Distance (km) Brightness Sun altitude
Rises 13:32:04 0° 239° (WSW) 2,516 6.7 -7.4°
Reaches altitude 10° 13:34:16 10° 232° (SW) 1,641 5.7 -7.9°
Maximum altitude 13:37:49 45° 159° (SSE) 683 3.0 -8.7°
Drops below altitude 10° 13:41:40 10° 85° (E) 1,774 4.9 -9.5°
Enters shadow 13:41:48 - 85° (E) 1,825 4.9 -9.6°
